www.pogodaiklimat.ru

Погода и климат >> Архив погоды >> ОАЭ >> Ras Al Khaimah Int Airport


ПОГОДА в Ras Al Khaimah Int Airport

  • Прогноз погоды в Ras Al Khaimah Int Airport
  • Монитор погоды в Ras Al Khaimah Int Airport
  • Климат города

АРХИВ ПОГОДЫ в Ras Al Khaimah Int Airport

Время (UTC), дата Ветер
(напр.,м/с)
 
Видим.   Явления Облачность Т
(С)
Тd
(С)
f
(%)
Тe
(С)
Тes
(С)
Комфортность P
(гПа)
Po
(гПа)
Тmin
(С)
Tmax
(С)
R
(мм)
R24
(мм)
S
(см)
03 16.09 Ю 3 10 км ясно +29.3 +18.2 51 +34 +35 очень
душно
1006.2 1006.0
06 16.09 ЮВ 6 10 км ясно +37.9 +19.0 33 +42 +48 опасность
перегрева
1006.4 1006.0 +27.4
09 16.09 В 5 10 км ясно +41.0 +19.3 29 +46 +56 опасность
перегрева
1004.1 1004.0
12 16.09 С 4 10 км ясно +39.3 +16.2 26 +41 +46 опасность
перегрева
1003.2 1003.0
15 16.09 ЮВ 5 10 км ясно +35.1 +23.7 52 +46 +46 опасность
перегрева
1003.6 1004.0
18 16.09 ЮВ 4 10 км ясно +33.3 +23.6 57 +44 +44 опасность
перегрева
1004.5 1005.0 +42.1
21 16.09 С 2 10 км ясно +29.5 +21.7 63 +38 +38 очень
душно
1003.6 1004.0
00 17.09 ЮВ 6 10 км ясно +31.3 +22.5 60 +41 +41 опасность
перегрева
1002.8 1003.0
03 17.09 ЮВ 6 10 км ясно +31.4 +25.1 69 +45 +45 опасность
перегрева
1004.4 1004.0
06 17.09 ЮВ 8 10 км ясно +37.5 +20.1 36 +43 +46 опасность
перегрева
1005.3 1005.0 +28.0
09 17.09 ЮВ 7 10 км ясно +40.0 +20.3 32 +45 +51 опасность
перегрева
1003.8 1004.0
12 17.09 С 6 8000 м пыль ясно +37.6 +20.1 36 +43 +46 опасность
перегрева
1003.1 1003.0
15 17.09 ЮВ 5 8000 м пыль ясно +35.7 +22.7 47 +45 +45 опасность
перегрева
1003.9 1004.0
18 17.09 ЮВ 6 10 км ясно +32.8 +23.2 57 +43 +43 опасность
перегрева
1004.3 1004.0 +41.5
21 17.09 ЮВ 3 10 км ясно +32.0 +23.3 60 +43 +43 опасность
перегрева
1004.3 1004.0
03 18.09 В 8 10 км ясно +31.4 +22.7 60 +41 +41 опасность
перегрева
1005.7 1006.0
06 18.09 В 8 10 км ясно +35.8 +22.5 46 +45 +47 опасность
перегрева
1007.2 1007.0 +31.0
09 18.09 ЮЗ 2 10 км ясно +39.5 +19.3 31 +44 +61 опасность
перегрева
1005.6 1006.0
12 18.09 С 7 10 км ясно +37.6 +23.6 45 +48 +50 опасность
перегрева
1004.2 1004.0
15 18.09 С 3 10 км ясно +35.6 +20.7 42 +42 +42 опасность
перегрева
1004.9 1005.0
18 18.09 ЮВ 3 10 км ясно +33.7 +22.2 51 +43 +43 опасность
перегрева
1006.4 1006.0 +41.6
21 18.09 нст 1 10 км ясно +28.7 +22.2 68 +37 +37 очень
душно
1005.9 1006.0
00 19.09 ЮВ 3 10 км ясно +28.1 +20.9 65 +35 +35 очень
душно
1005.8 1006.0
03 19.09 ЮВ 2 10 км ясно +29.9 +22.9 66 +40 +40 очень
душно
1007.7 1008.0
06 19.09 Ю 4 10 км ясно +36.9 +17.1 31 +40 +48 очень
душно
1008.8 1009.0 +27.5
09 19.09 С 5 6000 м пыль ясно +39.4 +17.5 28 +42 +51 опасность
перегрева
1006.7 1007.0
12 19.09 С 5 8000 м пыль ясно +37.1 +18.2 33 +41 +44 опасность
перегрева
1005.8 1006.0
15 19.09 С 2 10 км ясно +33.9 +18.6 40 +38 +38 очень
душно
1006.2 1006.0
18 19.09 ЮЗ 2 10 км ясно +29.4 +17.3 48 +33 +33 душно 1006.4 1006.0 +41.4
21 19.09 Ю 3 10 км ясно +28.2 +15.2 45 +31 +31 душно 1005.2 1005.0
03 20.09 В 2 8000 м пыль ясно +26.7 +13.8 45 +29 +29 жарко 1006.1 1006.0
06 20.09 С 1 10 км ясно +36.9 +12.5 23 +37 +51 опасность
солнечного
удара
1007.3 1007.0 +25.1
09 20.09 СЗ 5 10 км ясно +38.4 +13.6 23 +39 +47 очень
душно
1006.2 1006.0
12 20.09 С 4 10 км ясно +37.5 +19.0 34 +42 +46 опасность
перегрева
1004.6 1005.0
15 20.09 С 2 10 км ясно +33.9 +19.5 43 +40 +40 очень
душно
1004.9 1005.0
18 20.09 штиль 0 10 км ясно +30.1 +19.1 52 +36 +36 очень
душно
1006.0 1006.0 +41.6
03 21.09 ЮВ 1 7000 м пыль ясно +26.2 +18.1 61 +31 +31 очень
душно
1006.9 1007.0
06 21.09 С 3 10 км 3/0
[Ac trans]
+36.6 +20.2 38 +42 +51 опасность
перегрева
1008.0 1008.0 +25.2
09 21.09 В 9 8000 м пыль ясно +43.0 +19.9 27 +40 +42 очень
жарко
1005.7 1006.0
12 21.09 СЗ 5 10 км ясно +39.1 +18.9 31 +43 +46 опасность
перегрева
1004.7 1005.0
15 21.09 С 2 10 км ясно +35.4 +19.2 39 +41 +41 опасность
перегрева
1005.5 1006.0
18 21.09 штиль 0 10 км ясно +30.7 +23.8 67 +42 +42 опасность
перегрева
1007.5 1008.0 +44.3
21 21.09 ЮЗ 1 10 км ясно +28.7 +24.3 77 +40 +40 очень
душно
1006.5 1007.0
00 22.09 СВ 2 8000 м пыль ясно +28.2 +21.8 68 +36 +36 очень
душно
1005.8 1006.0
03 22.09 Ю 3 8000 м пыль ясно +27.4 +22.7 76 +36 +37 очень
душно
1006.9 1007.0
09 22.09 СВ 3 10 км ясно +41.2 +19.5 29 +46 +61 опасность
перегрева
1006.4 1006.0
12 22.09 СЗ 5 10 км ясно +40.4 +12.4 19 +40 +43 очень
жарко
1005.4 1005.0
15 22.09 С 1 10 км ясно +36.4 +12.0 23 +36 +36 очень
жарко
1006.4 1006.0
18 22.09 Ю 1 10 км ясно +32.2 +12.1 29 +32 +32 жарко 1007.8 1008.0 +43.9
21 22.09 штиль 0 10 км ясно +28.3 +13.1 39 +30 +30 жарко 1007.5 1008.0

 

Местоположение метеостанции Ras Al Khaimah Int Airport (ОАЭ): широта 25.62 долгота 55.93 высота над уровнем моря 31 м.

В архиве по умолчанию представлена погода в Ras Al Khaimah Int Airport за последнюю неделю. Архивные данные за месяц целиком и за предыдущие месяцы, начиная с января 2011 года, Вы можете получить, выбрав интересующий диапазон дат из раскрывающегося списка и нажав кнопку "Ввод!".


*Определитесь, кто Вы:
робот инопланетянин человек

Внимание! Время в таблицах - всемирное. Для получения местного времени необходимо прибавить поправку, которая в Ras Al Khaimah Int Airport равна 4 ч.

Смотрите также архив погоды в соседних городах и на ближайших метеорологических станциях:

Погода в Diba (Оман) (32 км)
Погода в Sharjah (ОАЭ) (52 км)
Погода в Khasab Airport (Оман) (68 км)
Погода в Fujairah (ОАЭ) (70 км)
Погода в Khasab (Оман) (73 км)
Погода в Dubai (ОАЭ) (73 км)
Погода в Dubai Al Maktoum Int Airport (ОАЭ) (111 км)
Погода в Abu Musa Island (Иран) (113 км)
Погода в Sirri Island (Иран) (142 км)
Погода в Sohar Majis (Оман) (146 км)

Пояснения к столбцам:

Ветер - указаны скорость ветра в м/с - средняя за 10 мин, порывы в срок и между сроками (в фигурных скобках) и направление, откуда дует ветер: С - северный, СВ - северо-восточный, В - восточный, ЮВ - юго-восточный, Ю - южный, ЮЗ - юго-западный, З - западный, СЗ - северо-западный.
Видимость - горизонтальная дальность видимости в метрах или километрах. При видимости от 1 до 10 км при отсутствии осадков обычно наблюдается дымка, при ухудшении видимости до 1 км и менее - туман. В сухую погоду видимость может ухудшаться дымом, пылью или мглою.
Явления - указаны атмосферные явления, наблюдавшиеся в срок или в последний час перед сроком; фигурными скобками обозначены явления, наблюдавшиеся между сроками (за 1-3 часа до срока); квадратными скобками обозначены град или гололедные отложения с указанием их диаметра в мм.
Облачность - указаны через наклонную черту общая и нижняя облачность в баллах и высота нижней границы облаков в метрах; квадратными скобками обозначены формы облаков: Ci - перистые, Cs - перисто-слоистые, Cc - перисто-кучевые, Ac - высококучевые, As - высокослоистые, Sc - слоисто-кучевые, Ns - слоисто-дождевые, Cu - кучевые, Cb - кучево-дождевые. Подробнее классификацию облаков см. в Атласе облаков (PDF).
T - Температура воздуха - температура, измеренная на высоте 2 м над землей.
Td - Температура точки росы - температура, при понижении до которой содержащийся в воздухе водяной пар достигнет насыщения.
f - Относительная влажность воздуха - влажноcть воздуха, измеренная на высоте 2 м над землей.
Te - Эффективная температура - температура, которую ощущает одетый по сезону человек в тени. Характеристика душности погоды. При расчете учитывается влияние влажности воздуха и скорости ветра на теплоощущения человека.
Tes - Эффективная температура на солнце - температура, которую ощущает человек, с поправкой на солнечный нагрев. Характеристика знойности погоды. Зависит от высоты солнца над горизонтом, облачности и скорости ветра. Ночью, в пасмурную погоду, а также при ветре 12 м/с и более поправка равна нулю.
P - Атмосферное давление - приведенное к уровню моря атмосферное давление.
Po - Атмосферное давление - измеренное на уровне метеостанции атмосферное давление.
Tmin - Минимальная температура - минимум температуры воздуха на высоте 2 м над землей.
Tmax - Максимальная температура - максимум температуры воздуха на высоте 2 м над землей.
R - Количество осадков - Количество выпавших осадков за период времени, мм. При наведении курсора мыши на число - период времени, за который выпало указанное количество осадков.
R24 - Количество осадков - Количество выпавших осадков за 24 часа, мм.
S - Снежный покров - Высота снежного покрова, см. При наведении курсора мыши на число - состояние снежного покрова и степень покрытия местности в баллах.